Regional Weather Roundup
Issued by NWS

Home | Current Version | Previous Version | Text Only | Print | Product List | Glossary Off
Versions: 1 2 3 4 5 6 7 8 9 10 11 12 13 14 15 16 17 18 19 20 21 22 23 24 25 26 27 28 29 30 31 32 33 34 35 36 37 38 39 40 41 42 43 44 45 46 47 48 49 50

000
ASUS45 KCYS 081110
RWRWY

WYOMING REGIONAL WEATHER ROUNDUP
NATIONAL WEATHER SERVICE CHEYENNE WY
400 AM MST MON FEB 08 2016

NOTE:  "FAIR" INDICATES FEW OR NO CLOUDS BELOW 12,000 FEET
WITH NO SIGNIFICANT WEATHER AND/OR OBSTRUCTIONS TO VISIBILITY.

WYZ001-081200-
YELLOWSTONE NATIONAL PARK

CITY           SKY/WX    TMP DP  RH WIND       PRES   REMARKS
LK YELLOWSTONE   N/A     15  11  83 CALM      30.57S
W YELLOWSTONE  NOT AVBL

$$
WYZ002>013-054>058-071-098>099-081200-
NORTHERN WYOMING

CITY           SKY/WX    TMP DP  RH WIND       PRES   REMARKS
JACKSON        FAIR       9   7  92 N6        30.57F WCI  -1
CODY           FAIR      23  10  58 CALM      30.36F
GREYBULL       FAIR      23  17  78 SE5       30.43F WCI  17
WORLAND        FAIR      19  14  81 S5        30.43R WCI  12
SHERIDAN       CLOUDY    29  14  53 W6        30.41R WCI  23
BUFFALO        MOCLDY    24  11  57 CALM      30.38R
GILLETTE       FAIR      20   9  62 W13       30.37S WCI   7
HULETT         FAIR      27  10  50 CALM      30.38R
NEWCASTLE      FAIR      21   9  58 NW20      30.33S WCI   6

$$
WYZ014>020-022>026-101>103-081200-
CENTRAL WYOMING

CITY           SKY/WX    TMP DP  RH WIND       PRES   REMARKS
BIG PINEY      FAIR      23  16  74 N15       30.50R WCI  10
PINEDALE       FAIR      30  19  64 W23G31    30.47R WCI  17
DUBOIS         FAIR      32  21  64 W30G38    30.43F WCI  18
LANDER         FAIR      16   9  74 SE3       30.41S
RIVERTON       FAIR      14   7  73 W6        30.42F WCI   5
CASPER         FAIR      25  13  60 SW15      30.37S WCI  13
DOUGLAS        FAIR      17   9  70 W10         N/A  WCI   5

$$
WYZ021-027>030-104>119-081200-
SOUTHERN WYOMING

CITY           SKY/WX    TMP DP  RH WIND       PRES   REMARKS
EVANSTON       FAIR      21  14  74 S9        30.59S WCI  11
FORT BRIDGER   SUNNY     30  18  59 W18       30.57F WCI  18
ROCK SPRINGS   FAIR      26  16  65 W31       30.49R WCI   9
DIXON          FAIR      13   9  81 NE3       30.55R
RAWLINS        MOCLDY    24  15  68 W18       30.45R WCI  10
SARATOGA       CLOUDY    30  19  64 W20       30.44S WCI  18
LARAMIE          N/A     32  17  54 NW25G35   30.34S WCI  19
CHEYENNE       MOCLDY    34  17  50 NW20G33   30.30S WCI  23
TORRINGTON     FAIR      22  11  62 NW8       30.36S WCI  12
PINE BLUFFS    CLOUDY    23  14  68 NW7       30.33F WCI  15

$$



USA.gov is the U.S. government's official web portal to all federal, state and local government web resources and services.